When you browse on this site, cookies collect data to enhance your experience and personalize the content and advertising you see.
Visit our Privacy Policy to learn more. By continuing to use the site, you agree to this use of cookies and data.
  • In Österreich
  • Länderverzeichnis
  • Für 7 Tage
  • Wassertemperatur
  • Satellitenkarten
  • Wetterkarte
  • News
  • Widgets
  • user-avatar
    Anmelden

    Stündliche Wetter Tallahassee

    Heute, 25 April, Donnerstag

    Zeit Temperatur Niederschläge Wind Luftdruck Luftfeuchtigkeit
    00:00 +17°C° 0 mm 0 m/S 758 mmHg 72%
    01:00 +17°C° 0 mm 0 m/S 758 mmHg 72%
    02:00 +16°C° 0 mm 0 m/S 757 mmHg 73%
    03:00 +16°C° 0 mm 0 m/S 757 mmHg 74%
    04:00 +17°C° 0 mm 0 m/S 758 mmHg 74%
    05:00 +17°C° 0 mm 0 m/S 758 mmHg 74%
    06:00 +20°C° 0 mm 1 m/S 758 mmHg 71%
    07:00 +22°C° 0 mm 1 m/S 758 mmHg 65%
    08:00 +24°C° 0 mm 2 m/S 758 mmHg 60%
    09:00 +27°C° 0 mm 2 m/S 758 mmHg 54%
    10:00 +27°C° 0 mm 3 m/S 758 mmHg 52%
    11:00 +28°C° 0 mm 3 m/S 757 mmHg 50%
    12:00 +29°C° 0 mm 4 m/S 757 mmHg 47%
    13:00 +29°C° 0 mm 4 m/S 757 mmHg 49%
    14:00 +28°C° 0 mm 4 m/S 756 mmHg 51%
    15:00 +28°C° 0 mm 4 m/S 756 mmHg 52%
    16:00 +26°C° 0 mm 4 m/S 756 mmHg 61%
    17:00 +25°C° 0 mm 3 m/S 756 mmHg 70%
    18:00 +23°C° 0 mm 2 m/S 756 mmHg 79%
    19:00 +23°C° 1.8 mm 2 m/S 756 mmHg 84%
    20:00 +21°C° 1.8 mm 2 m/S 756 mmHg 90%
    21:00 +21°C° 1.8 mm 2 m/S 756 mmHg 95%
    22:00 +20°C° 1.5 mm 2 m/S 755 mmHg 95%
    23:00 +20°C° 1.5 mm 2 m/S 755 mmHg 96%

    Morgen, 26 April, Freitag

    Zeit Temperatur Niederschläge Wind Luftdruck Luftfeuchtigkeit
    00:00 +20°C° 1.5 mm 2 m/S 755 mmHg 96%
    01:00 +20°C° 1 mm 2 m/S 754 mmHg 96%
    02:00 +20°C° 1 mm 2 m/S 754 mmHg 97%
    03:00 +21°C° 1 mm 2 m/S 753 mmHg 97%
    04:00 +21°C° 0 mm 3 m/S 753 mmHg 97%
    05:00 +21°C° 0 mm 3 m/S 753 mmHg 96%
    06:00 +21°C° 0 mm 3 m/S 753 mmHg 96%
    07:00 +21°C° 0 mm 3 m/S 754 mmHg 90%
    08:00 +22°C° 0 mm 4 m/S 754 mmHg 84%
    09:00 +22°C° 0 mm 4 m/S 755 mmHg 78%
    10:00 +23°C° 0 mm 4 m/S 755 mmHg 72%
    11:00 +25°C° 0 mm 4 m/S 755 mmHg 65%
    12:00 +26°C° 0 mm 4 m/S 756 mmHg 59%
    13:00 +26°C° 0 mm 4 m/S 756 mmHg 54%
    14:00 +27°C° 0 mm 5 m/S 755 mmHg 49%
    15:00 +28°C° 0 mm 5 m/S 755 mmHg 44%
    16:00 +26°C° 0 mm 4 m/S 756 mmHg 49%
    17:00 +24°C° 0 mm 3 m/S 756 mmHg 55%
    18:00 +21°C° 0 mm 2 m/S 757 mmHg 60%
    19:00 +20°C° 0 mm 2 m/S 757 mmHg 60%
    20:00 +19°C° 0 mm 2 m/S 758 mmHg 60%
    21:00 +18°C° 0 mm 2 m/S 759 mmHg 60%
    22:00 +17°C° 0 mm 2 m/S 759 mmHg 60%
    23:00 +16°C° 0 mm 2 m/S 759 mmHg 59%

    übermorgen, 27 April, Samstag

    Zeit Temperatur Niederschläge Wind Luftdruck Luftfeuchtigkeit
    00:00 +16°C° 0 mm 2 m/S 759 mmHg 58%
    01:00 +15°C° 0 mm 1 m/S 759 mmHg 61%
    02:00 +15°C° 0 mm 1 m/S 759 mmHg 63%
    03:00 +14°C° 0 mm 1 m/S 759 mmHg 65%
    04:00 +14°C° 0 mm 1 m/S 759 mmHg 67%
    05:00 +15°C° 0 mm 1 m/S 760 mmHg 68%
    06:00 +15°C° 0 mm 1 m/S 760 mmHg 70%
    07:00 +18°C° 0 mm 1 m/S 760 mmHg 60%
    08:00 +20°C° 0 mm 2 m/S 761 mmHg 50%
    09:00 +24°C° 0 mm 2 m/S 761 mmHg 40%
    10:00 +26°C° 0 mm 1 m/S 760 mmHg 36%
    11:00 +28°C° 0 mm 1 m/S 760 mmHg 32%
    12:00 +28°C° 0 mm 0 m/S 760 mmHg 28%
    13:00 +30°C° 0 mm 1 m/S 759 mmHg 28%
    14:00 +30°C° 0 mm 1 m/S 758 mmHg 27%
    15:00 +29°C° 0 mm 2 m/S 758 mmHg 27%
    16:00 +27°C° 0 mm 2 m/S 758 mmHg 35%
    17:00 +24°C° 0 mm 2 m/S 758 mmHg 42%
    18:00 +21°C° 0 mm 2 m/S 758 mmHg 50%
    19:00 +20°C° 0 mm 2 m/S 758 mmHg 52%
    20:00 +19°C° 0 mm 1 m/S 759 mmHg 54%
    21:00 +18°C° 0 mm 1 m/S 759 mmHg 56%
    22:00 +16°C° 0 mm 1 m/S 759 mmHg 58%
    23:00 +16°C° 0 mm 1 m/S 759 mmHg 60%

    28 April, Sonntag

    Zeit Temperatur Niederschläge Wind Luftdruck Luftfeuchtigkeit
    00:00 +15°C° 0 mm 1 m/S 758 mmHg 62%
    01:00 +15°C° 0 mm 1 m/S 758 mmHg 63%
    02:00 +14°C° 0 mm 1 m/S 758 mmHg 65%
    03:00 +14°C° 0 mm 1 m/S 758 mmHg 66%
    04:00 +13°C° 0 mm 0 m/S 759 mmHg 67%
    05:00 +14°C° 0 mm 0 m/S 759 mmHg 68%
    06:00 +14°C° 0 mm 0 m/S 760 mmHg 69%
    07:00 +18°C° 0 mm 0 m/S 760 mmHg 58%
    08:00 +21°C° 0 mm 0 m/S 760 mmHg 47%
    09:00 +25°C° 0 mm 0 m/S 761 mmHg 37%
    10:00 +26°C° 0 mm 0 m/S 760 mmHg 32%
    11:00 +29°C° 0 mm 1 m/S 760 mmHg 27%
    12:00 +31°C° 0 mm 2 m/S 760 mmHg 22%
    13:00 +31°C° 0 mm 1 m/S 759 mmHg 23%
    14:00 +31°C° 0 mm 1 m/S 759 mmHg 23%
    15:00 +31°C° 0 mm 1 m/S 758 mmHg 24%
    16:00 +29°C° 0 mm 1 m/S 759 mmHg 34%
    17:00 +26°C° 0 mm 1 m/S 759 mmHg 44%
    18:00 +24°C° 0 mm 1 m/S 759 mmHg 53%
    19:00 +22°C° 0 mm 1 m/S 760 mmHg 59%
    20:00 +21°C° 0 mm 1 m/S 760 mmHg 64%
    21:00 +20°C° 0 mm 1 m/S 760 mmHg 69%
    22:00 +19°C° 0 mm 1 m/S 760 mmHg 69%
    23:00 +19°C° 0 mm 1 m/S 761 mmHg 68%

    29 April, Montag

    Zeit Temperatur Niederschläge Wind Luftdruck Luftfeuchtigkeit
    00:00 +18°C° 0 mm 1 m/S 761 mmHg 68%
    01:00 +18°C° 0 mm 1 m/S 761 mmHg 67%
    02:00 +18°C° 0 mm 1 m/S 761 mmHg 65%
    03:00 +18°C° 0 mm 1 m/S 761 mmHg 63%
    04:00 +18°C° 0 mm 1 m/S 761 mmHg 65%
    05:00 +19°C° 0 mm 1 m/S 762 mmHg 66%
    06:00 +19°C° 0 mm 1 m/S 762 mmHg 68%
    07:00 +22°C° 0 mm 1 m/S 762 mmHg 59%
    08:00 +25°C° 0 mm 1 m/S 763 mmHg 51%
    09:00 +28°C° 0 mm 2 m/S 763 mmHg 43%
    10:00 +30°C° 0 mm 2 m/S 763 mmHg 39%
    11:00 +32°C° 0 mm 2 m/S 763 mmHg 35%
    12:00 +34°C° 0 mm 2 m/S 762 mmHg 31%
    13:00 +34°C° 0 mm 2 m/S 762 mmHg 31%
    14:00 +34°C° 0 mm 2 m/S 761 mmHg 31%
    15:00 +35°C° 0 mm 2 m/S 761 mmHg 31%
    16:00 +31°C° 0 mm 2 m/S 761 mmHg 39%
    17:00 +29°C° 0 mm 1 m/S 761 mmHg 47%
    18:00 +27°C° 0 mm 1 m/S 762 mmHg 55%
    19:00 +26°C° 0 mm 1 m/S 762 mmHg 57%
    20:00 +24°C° 0 mm 1 m/S 763 mmHg 60%
    21:00 +21°C° 0 mm 0 m/S 763 mmHg 62%
    22:00 +23°C° 0 mm 1 m/S 763 mmHg 64%
    23:00 +22°C° 0 mm 1 m/S 763 mmHg 66%

    30 April, Dienstag

    Zeit Temperatur Niederschläge Wind Luftdruck Luftfeuchtigkeit
    00:00 +21°C° 0 mm 2 m/S 763 mmHg 69%
    01:00 +20°C° 0 mm 2 m/S 763 mmHg 74%
    02:00 +19°C° 0 mm 2 m/S 763 mmHg 79%
    03:00 +19°C° 0 mm 2 m/S 763 mmHg 85%
    04:00 +19°C° 0 mm 2 m/S 763 mmHg 86%
    05:00 +20°C° 0 mm 2 m/S 763 mmHg 88%
    06:00 +20°C° 0 mm 2 m/S 764 mmHg 90%
    07:00 +23°C° 0 mm 2 m/S 764 mmHg 80%
    08:00 +26°C° 0 mm 2 m/S 764 mmHg 70%
    09:00 +28°C° 0 mm 3 m/S 764 mmHg 59%
    10:00 +29°C° 0 mm 3 m/S 764 mmHg 53%
    11:00 +31°C° 0 mm 3 m/S 764 mmHg 47%
    12:00 +33°C° 0 mm 3 m/S 764 mmHg 41%
    13:00 +33°C° 0 mm 3 m/S 763 mmHg 41%
    14:00 +33°C° 0 mm 3 m/S 763 mmHg 41%
    15:00 +33°C° 0 mm 3 m/S 762 mmHg 41%
    16:00 +30°C° 0 mm 2 m/S 762 mmHg 49%
    17:00 +28°C° 0 mm 2 m/S 762 mmHg 56%
    18:00 +26°C° 0 mm 1 m/S 762 mmHg 64%
    19:00 +26°C° 0 mm 1 m/S 763 mmHg 65%
    20:00 +25°C° 0 mm 1 m/S 763 mmHg 66%
    21:00 +22°C° 0 mm 0 m/S 763 mmHg 66%
    22:00 +24°C° 0 mm 1 m/S 763 mmHg 70%
    23:00 +23°C° 0 mm 1 m/S 763 mmHg 74%
    Mehr zeigen